Content
SEND FEEDBACK

Daily
Averages
Monthly
Summary
United States of America

BROOKLYN, NEW YORK


Home > North America > United States > New York
Elevation: 2 feet     Latitude: 40 36N     Longitude: 073 59W

WEATHER
 
SELECT A DAY
Number of Records: 189,924;   Date Range: 1/1/95 - 12/26/14
 
SHARE

PRINT THIS DATA

[ ← Previous Day ]
WEATHER ALMANAC - JANUARY 31, 2013
[ Next Day → ]
[ °C ]   °F
Weather ElementAverageHighLow
Temperature44.9 °F55.4 °F (5:29 am)30 °F (11:51 pm)
Dewpoint30.4 °F53.6 °F (5:29 am)7 °F (11:51 pm)
Humidity61.1 %100 % (2:51 am)29 % (3:51 pm)
Barometer29.41 in29.81 in (11:51 pm)29.08 in (5:51 am)
Wind Speed29.5 mph42.6 mph (4:32 am)
Wind Gust58.7 mph (7:04 am)
Weather ElementAverage
Visibility7.7 mi
Wind DirectionWSW (244.6 °)

Weather ElementTotal
Precipitation0.72 in
Heating Degree Days22.3 (Base 65)
Averaged from 28 records on January 31, 2013
WEATHER CONDITIONS BREAKOUT
WIND DIRECTION BREAKOUT
WEATHER BY HOUR - JANUARY 31, 2013
[ °C ]   °F
Local TimeTemperatureDewpointHumidityBarometerVisibilityWind DirectionWind SpeedGust SpeedPrecipitationEventsConditions
1:51 AM53.1 °F51.1 °F93 %29.29 in0.5 miSouth (180°)35.7 mph48.3 mph0.01 inRainLight Rain
2:51 AM50.0 °F50.0 °F100 %29.21 in0.5 miSouth (180°)27.6 mph38.0 mph0.05 inRainLight Rain
3:24 AM51.8 °F51.8 °F100 %29.15 in1.0 miSouth (180°)31.1 mph38.0 mph0.02 inRainLight Rain
3:51 AM53.1 °F52.0 °F96 %29.13 in1.0 miSouth (180°)36.8 mph48.3 mph0.07 inRainHeavy Rain
4:32 AM53.6 °F51.8 °F94 %29.17 in2.0 miSSW (200°)42.6 mph52.9 mph0.16 inRainLight Rain
4:51 AM53.1 °F53.1 °F100 %29.16 in2.0 miSSW (200°)23.0 mph34.5 mph0.20 inRainRain
5:29 AM55.4 °F53.6 °F94 %29.12 in7.0 miSSW (210°)17.3 mph0.10 inRainLight Rain
5:51 AM54.0 °F53.1 °F97 %29.08 in10.0 miSouth (180°)19.6 mph0.10 inRainLight Rain
6:51 AM52.0 °F48.9 °F89 %29.11 in8.0 miSSW (200°)28.8 mph34.5 mph0.01 inMostly Cloudy
7:04 AM51.8 °F46.4 °F82 %29.16 in5.0 miWest (270°)36.8 mph58.7 mph0.00 inRainLight Rain
7:32 AM48.2 °F35.6 °F62 %29.21 in10.0 miWest (270°)33.4 mph48.3 mph0.00 inMostly Cloudy
7:51 AM48.9 °F35.1 °F59 %29.22 in10.0 miWest (260°)28.8 mph38.0 mph0.00 inMostly Cloudy
8:51 AM46.9 °F30.0 °F52 %29.30 in10.0 miWest (270°)35.7 mph49.5 mphScattered Clouds
9:51 AM45.0 °F25.0 °F46 %29.37 in10.0 miWest (280°)28.8 mph49.5 mphMostly Cloudy
10:51 AM46.0 °F21.9 °F39 %29.40 in10.0 miWest (280°)26.5 mph42.6 mphScattered Clouds
11:51 AM46.9 °F21.0 °F36 %29.43 in10.0 miWest (270°)27.6 mph41.4 mphScattered Clouds
12:51 PM46.9 °F19.0 °F33 %29.44 in10.0 miWest (280°)27.6 mph34.5 mphScattered Clouds
1:51 PM46.0 °F18.0 °F33 %29.47 in10.0 miWest (270°)26.5 mph35.7 mphScattered Clouds
2:51 PM43.0 °F17.1 °F35 %29.52 in10.0 miWest (260°)35.7 mph47.2 mphScattered Clouds
3:51 PM42.1 °F12.0 °F29 %29.55 in10.0 miWest (270°)33.4 mph47.2 mphScattered Clouds
4:51 PM39.0 °F12.9 °F34 %29.60 in10.0 miWest (270°)28.8 mph41.4 mphScattered Clouds
5:51 PM36.0 °F17.1 °F46 %29.67 in10.0 miWest (260°)34.5 mph48.3 mphScattered Clouds
6:51 PM35.1 °F12.0 °F39 %29.71 in10.0 miWest (270°)21.9 mph38.0 mphPartly Cloudy
7:51 PM34.0 °F12.0 °F40 %29.73 in10.0 miWest (280°)26.5 mph36.8 mphPartly Cloudy
8:51 PM33.1 °F18.0 °F54 %29.76 in8.0 miWest (260°)29.9 mph38.0 mph0.00 inSnowLight Snow
9:51 PM32.0 °F17.1 °F54 %29.78 in10.0 miWest (270°)27.6 mph34.5 mph0.00 inScattered Clouds
10:51 PM30.9 °F8.1 °F38 %29.80 in10.0 miWest (270°)29.9 mph40.3 mphPartly Cloudy
11:51 PM30.0 °F7.0 °F38 %29.81 in10.0 miWest (280°)23.0 mph35.7 mphPartly Cloudy
Hourly data recorded from KJFK, located miles away from Brooklyn, New York







STORIES FROM OUR PARTNERS